Time,TemperatureF,DewpointF,PressureIn,WindDirection,WindDirectionDegrees,WindSpeedMPH,WindSpeedGustMPH,Humidity,HourlyPrecipIn,Conditions,Clouds,dailyrainin,SoftwareType,DateUTC
2013-05-31 00:00:00,62.2,47.7,29.77,SSW,211,0.0,0.0,59,0.00,,SKC,0.00,VWS V14.01,2013-05-31 07:00:00,
2013-05-31 00:01:00,62.1,47.6,29.77,SSW,211,0.0,0.0,59,0.00,,SKC,0.00,VWS V14.01,2013-05-31 07:01:00,
2013-05-31 00:06:00,61.9,47.9,29.77,SSW,211,0.0,0.0,60,0.00,,SKC,0.00,VWS V14.01,2013-05-31 07:06:00,
2013-05-31 00:10:00,61.7,47.7,29.77,SSW,211,0.0,0.0,60,0.00,,SKC,0.00,VWS V14.01,2013-05-31 07:10:00,
2013-05-31 00:11:00,61.6,47.6,29.77,SSW,211,0.0,0.0,60,0.00,,SKC,0.00,VWS V14.01,2013-05-31 07:11:00,
2013-05-31 00:16:00,61.4,47.8,29.77,SSW,211,0.0,0.0,61,0.00,,SKC,0.00,VWS V14.01,2013-05-31 07:16:00,
2013-05-31 00:20:00,61.3,47.8,29.77,SSW,211,0.0,0.0,61,0.00,,SKC,0.00,VWS V14.01,2013-05-31 07:20:00,
2013-05-31 00:21:00,61.1,48.0,29.77,SSW,211,0.0,0.0,62,0.00,,SKC,0.00,VWS V14.01,2013-05-31 07:21:00,
2013-05-31 00:26:00,61.0,48.3,29.77,SSW,211,0.0,0.0,63,0.00,,SKC,0.00,VWS V14.01,2013-05-31 07:26:00,
2013-05-31 00:30:00,60.9,48.2,29.77,SSW,211,0.0,0.0,63,0.00,,SKC,0.00,VWS V14.01,2013-05-31 07:30:00,
2013-05-31 00:31:00,60.8,48.1,29.77,SSW,211,0.0,0.0,63,0.00,,SKC,0.00,VWS V14.01,2013-05-31 07:31:00,
2013-05-31 00:36:00,60.6,48.0,29.77,SSW,211,0.0,0.0,63,0.00,,SKC,0.00,VWS V14.01,2013-05-31 07:36:00,
2013-05-31 00:40:00,60.5,47.9,29.77,SSW,211,0.0,0.0,63,0.00,,SKC,0.00,VWS V14.01,2013-05-31 07:40:00,
2013-05-31 00:41:00,60.5,47.9,29.77,SSW,211,0.0,0.0,63,0.00,,SKC,0.00,VWS V14.01,2013-05-31 07:41:00,
2013-05-31 00:46:00,60.4,47.8,29.77,SSW,211,0.0,0.0,63,0.00,,SKC,0.00,VWS V14.01,2013-05-31 07:46:00,
2013-05-31 00:50:00,60.3,48.1,29.77,SSW,211,0.0,0.0,64,0.00,,SKC,0.00,VWS V14.01,2013-05-31 07:50:00,
2013-05-31 00:51:00,60.2,48.4,29.77,SSW,211,0.0,0.0,65,0.00,,SKC,0.00,VWS V14.01,2013-05-31 07:51:00,
2013-05-31 00:56:00,60.1,47.9,29.77,SSW,211,0.0,0.0,64,0.00,,SKC,0.00,VWS V14.01,2013-05-31 07:56:00,
2013-05-31 01:00:00,60.1,47.9,29.77,SSW,211,0.0,0.0,64,0.00,,SKC,0.00,VWS V14.01,2013-05-31 08:00:00,
2013-05-31 01:01:00,60.0,47.8,29.77,SSW,211,0.0,0.0,64,0.00,,SKC,0.00,VWS V14.01,2013-05-31 08:01:00,
2013-05-31 01:06:00,60.0,48.2,29.77,SSW,211,0.0,0.0,65,0.00,,SKC,0.00,VWS V14.01,2013-05-31 08:06:00,
2013-05-31 01:10:00,59.9,48.1,29.77,SSW,211,0.0,0.0,65,0.00,,SKC,0.00,VWS V14.01,2013-05-31 08:10:00,
2013-05-31 01:11:00,59.9,48.5,29.77,SSW,211,0.0,0.0,66,0.00,,SKC,0.00,VWS V14.01,2013-05-31 08:11:00,
2013-05-31 01:16:00,59.7,48.7,29.78,SSW,211,0.0,0.0,67,0.00,,SKC,0.00,VWS V14.01,2013-05-31 08:16:00,
2013-05-31 01:20:00,59.6,48.6,29.78,SSW,211,0.0,0.0,67,0.00,,SKC,0.00,VWS V14.01,2013-05-31 08:20:00,
2013-05-31 01:22:00,59.6,48.6,29.78,SSW,211,0.0,0.0,67,0.00,,SKC,0.00,VWS V14.01,2013-05-31 08:22:00,
2013-05-31 01:27:00,59.4,48.8,29.78,SSW,211,0.0,0.0,68,0.00,,SKC,0.00,VWS V14.01,2013-05-31 08:27:00,
2013-05-31 01:30:00,59.4,48.8,29.78,SSW,211,0.0,0.0,68,0.00,,SKC,0.00,VWS V14.01,2013-05-31 08:30:00,
2013-05-31 01:32:00,59.3,48.8,29.78,SSW,211,0.0,0.0,68,0.00,,SKC,0.00,VWS V14.01,2013-05-31 08:32:00,
2013-05-31 01:37:00,59.2,49.4,29.78,SSW,211,0.0,0.0,70,0.00,,SKC,0.00,VWS V14.01,2013-05-31 08:37:00,
2013-05-31 01:40:00,59.1,49.3,29.78,SSW,211,0.0,0.0,70,0.00,,SKC,0.00,VWS V14.01,2013-05-31 08:40:00,
2013-05-31 01:42:00,59.0,49.6,29.78,SSW,211,0.0,0.0,71,0.00,,SKC,0.00,VWS V14.01,2013-05-31 08:42:00,
2013-05-31 01:47:00,58.9,49.2,29.77,SSW,211,0.0,0.0,70,0.00,,SKC,0.00,VWS V14.01,2013-05-31 08:47:00,
2013-05-31 01:50:00,58.8,49.0,29.77,SSW,211,0.0,0.0,70,0.00,,SKC,0.00,VWS V14.01,2013-05-31 08:50:00,
2013-05-31 01:52:00,58.7,48.6,29.77,SSW,211,0.0,0.0,69,0.00,,SKC,0.00,VWS V14.01,2013-05-31 08:52:00,
2013-05-31 01:57:00,58.6,48.5,29.77,SSW,211,0.0,0.0,69,0.00,,SKC,0.00,VWS V14.01,2013-05-31 08:57:00,
2013-05-31 02:00:00,58.5,48.4,29.77,SSW,211,0.0,0.0,69,0.00,,SKC,0.00,VWS V14.01,2013-05-31 09:00:00,
2013-05-31 02:02:00,58.3,48.6,29.77,SSW,211,0.0,0.0,70,0.00,,SKC,0.00,VWS V14.01,2013-05-31 09:02:00,
2013-05-31 02:07:00,58.1,48.4,29.77,SSW,211,0.0,0.0,70,0.00,,SKC,0.00,VWS V14.01,2013-05-31 09:07:00,
2013-05-31 02:10:00,58.0,48.3,29.77,SSW,211,0.0,0.0,70,0.00,,SKC,0.00,VWS V14.01,2013-05-31 09:10:00,
2013-05-31 02:12:00,57.8,48.1,29.77,SSW,211,0.0,0.0,70,0.00,,SKC,0.00,VWS V14.01,2013-05-31 09:12:00,
2013-05-31 02:17:00,57.7,48.8,29.77,SSW,211,0.0,0.0,72,0.00,,SKC,0.00,VWS V14.01,2013-05-31 09:17:00,
2013-05-31 02:20:00,57.7,49.1,29.77,SSW,211,0.0,0.0,73,0.00,,SKC,0.00,VWS V14.01,2013-05-31 09:20:00,
2013-05-31 02:22:00,57.5,48.9,29.77,SSW,211,0.0,0.0,73,0.00,,SKC,0.00,VWS V14.01,2013-05-31 09:22:00,
2013-05-31 02:27:00,57.4,48.8,29.77,SSW,211,0.0,0.0,73,0.00,,SKC,0.00,VWS V14.01,2013-05-31 09:27:00,
2013-05-31 02:30:00,57.3,48.7,29.77,SSW,211,0.0,0.0,73,0.00,,SKC,0.00,VWS V14.01,2013-05-31 09:30:00,
2013-05-31 02:32:00,57.2,48.3,29.77,SSW,211,0.0,0.0,72,0.00,,SKC,0.00,VWS V14.01,2013-05-31 09:32:00,
2013-05-31 02:37:00,57.0,48.1,29.77,SSW,211,0.0,0.0,72,0.00,,SKC,0.00,VWS V14.01,2013-05-31 09:37:00,
2013-05-31 02:40:00,56.9,48.0,29.77,SSW,211,0.0,0.0,72,0.00,,SKC,0.00,VWS V14.01,2013-05-31 09:40:00,
2013-05-31 02:42:00,56.8,47.9,29.77,SSW,211,0.0,0.0,72,0.00,,SKC,0.00,VWS V14.01,2013-05-31 09:42:00,
2013-05-31 02:47:00,56.6,47.7,29.77,SSW,211,0.0,0.0,72,0.00,,SKC,0.00,VWS V14.01,2013-05-31 09:47:00,
2013-05-31 02:50:00,56.6,47.7,29.77,SSW,211,0.0,0.0,72,0.00,,SKC,0.00,VWS V14.01,2013-05-31 09:50:00,
2013-05-31 02:52:00,56.5,47.6,29.77,SSW,211,0.0,0.0,72,0.00,,SKC,0.00,VWS V14.01,2013-05-31 09:52:00,
2013-05-31 02:57:00,56.3,47.4,29.77,SSW,211,0.0,1.0,72,0.00,,SKC,0.00,VWS V14.01,2013-05-31 09:57:00,
2013-05-31 03:00:00,56.3,47.4,29.77,SSW,211,0.0,1.0,72,0.00,,SKC,0.00,VWS V14.01,2013-05-31 10:00:00,
2013-05-31 03:02:00,56.3,47.4,29.77,SSW,211,0.0,0.0,72,0.00,,SKC,0.00,VWS V14.01,2013-05-31 10:02:00,
2013-05-31 03:07:00,56.5,47.6,29.77,SSW,211,0.0,1.0,72,0.00,,SKC,0.00,VWS V14.01,2013-05-31 10:07:00,
2013-05-31 03:10:00,56.5,47.6,29.77,SSW,211,0.0,1.0,72,0.00,,SKC,0.00,VWS V14.01,2013-05-31 10:10:00,
2013-05-31 03:12:00,56.6,47.3,29.77,SSW,211,0.0,0.0,71,0.00,,SKC,0.00,VWS V14.01,2013-05-31 10:12:00,
2013-05-31 03:17:00,56.6,47.3,29.77,SSW,211,0.0,0.0,71,0.00,,SKC,0.00,VWS V14.01,2013-05-31 10:17:00,
2013-05-31 03:20:00,56.6,47.3,29.77,SSW,211,0.0,0.0,71,0.00,,SKC,0.00,VWS V14.01,2013-05-31 10:20:00,
2013-05-31 03:22:00,56.7,47.4,29.77,SSW,211,0.0,0.0,71,0.00,,SKC,0.00,VWS V14.01,2013-05-31 10:22:00,
2013-05-31 03:27:00,56.6,47.7,29.77,SSW,211,0.0,0.0,72,0.00,,SKC,0.00,VWS V14.01,2013-05-31 10:27:00,
2013-05-31 03:30:00,56.6,47.7,29.76,SSW,211,0.0,0.0,72,0.00,,SKC,0.00,VWS V14.01,2013-05-31 10:30:00,
2013-05-31 03:32:00,56.5,47.2,29.76,SSW,211,0.0,0.0,71,0.00,,SKC,0.00,VWS V14.01,2013-05-31 10:32:00,
2013-05-31 03:37:00,56.3,47.0,29.76,SSW,211,0.0,0.0,71,0.00,,SKC,0.00,VWS V14.01,2013-05-31 10:37:00,
2013-05-31 03:40:00,56.2,47.3,29.76,SSW,211,0.0,0.0,72,0.00,,SKC,0.00,VWS V14.01,2013-05-31 10:40:00,
2013-05-31 03:43:00,56.1,47.2,29.76,SSW,211,0.0,0.0,72,0.00,,SKC,0.00,VWS V14.01,2013-05-31 10:43:00,
2013-05-31 03:48:00,55.9,47.4,29.76,SSW,211,0.0,0.0,73,0.00,,SKC,0.00,VWS V14.01,2013-05-31 10:48:00,
2013-05-31 03:50:00,55.9,47.7,29.76,SSW,211,0.0,0.0,74,0.00,,SKC,0.00,VWS V14.01,2013-05-31 10:50:00,
2013-05-31 03:53:00,55.7,47.9,29.76,SSW,211,0.0,0.0,75,0.00,,SKC,0.00,VWS V14.01,2013-05-31 10:53:00,
2013-05-31 03:58:00,55.5,48.1,29.76,SSW,211,0.0,0.0,76,0.00,,SKC,0.00,VWS V14.01,2013-05-31 10:58:00,
2013-05-31 04:00:00,55.5,48.1,29.76,SSW,211,0.0,0.0,76,0.00,,SKC,0.00,VWS V14.01,2013-05-31 11:00:00,
2013-05-31 04:03:00,55.4,48.0,29.76,SSW,211,0.0,0.0,76,0.00,,SKC,0.00,VWS V14.01,2013-05-31 11:03:00,
2013-05-31 04:08:00,55.2,47.4,29.76,SSW,211,0.0,0.0,75,0.00,,SKC,0.00,VWS V14.01,2013-05-31 11:08:00,
2013-05-31 04:10:00,55.1,47.3,29.76,SSW,211,0.0,0.0,75,0.00,,SKC,0.00,VWS V14.01,2013-05-31 11:10:00,
2013-05-31 04:13:00,55.0,47.2,29.76,SSW,211,0.0,0.0,75,0.00,,SKC,0.00,VWS V14.01,2013-05-31 11:13:00,
2013-05-31 04:18:00,54.8,47.0,29.76,SSW,211,0.0,0.0,75,0.00,,SKC,0.00,VWS V14.01,2013-05-31 11:18:00,
2013-05-31 04:20:00,54.7,46.9,29.76,SSW,211,0.0,0.0,75,0.00,,SKC,0.00,VWS V14.01,2013-05-31 11:20:00,
2013-05-31 04:23:00,54.6,46.8,29.76,SSW,211,0.0,0.0,75,0.00,,SKC,0.00,VWS V14.01,2013-05-31 11:23:00,
2013-05-31 04:28:00,54.5,47.1,29.77,SSW,211,0.0,0.0,76,0.00,,SKC,0.00,VWS V14.01,2013-05-31 11:28:00,
2013-05-31 04:30:00,54.5,47.1,29.77,SSW,211,0.0,0.0,76,0.00,,SKC,0.00,VWS V14.01,2013-05-31 11:30:00,
2013-05-31 04:33:00,54.5,47.1,29.77,SSW,211,0.0,0.0,76,0.00,,SKC,0.00,VWS V14.01,2013-05-31 11:33:00,
2013-05-31 04:38:00,54.5,47.1,29.77,SSW,211,0.0,0.0,76,0.00,,SKC,0.00,VWS V14.01,2013-05-31 11:38:00,
2013-05-31 04:40:00,54.5,47.1,29.77,SSW,211,0.0,0.0,76,0.00,,SKC,0.00,VWS V14.01,2013-05-31 11:40:00,
2013-05-31 04:43:00,54.5,47.1,29.77,SSW,211,0.0,0.0,76,0.00,,SKC,0.00,VWS V14.01,2013-05-31 11:43:00,
2013-05-31 04:48:00,54.3,46.9,29.77,SSW,211,0.0,0.0,76,0.00,,SKC,0.00,VWS V14.01,2013-05-31 11:48:00,
2013-05-31 04:50:00,54.4,47.0,29.77,SSW,211,0.0,0.0,76,0.00,,SKC,0.00,VWS V14.01,2013-05-31 11:50:00,
2013-05-31 04:53:00,54.2,46.8,29.77,SSW,211,0.0,0.0,76,0.00,,SKC,0.00,VWS V14.01,2013-05-31 11:53:00,
2013-05-31 04:58:00,54.1,46.7,29.77,SSW,211,0.0,0.0,76,0.00,,SKC,0.00,VWS V14.01,2013-05-31 11:58:00,
2013-05-31 05:00:00,54.0,46.6,29.77,SSW,211,0.0,0.0,76,0.00,,SKC,0.00,VWS V14.01,2013-05-31 12:00:00,
2013-05-31 05:03:00,53.8,46.8,29.77,SSW,211,0.0,0.0,77,0.00,,SKC,0.00,VWS V14.01,2013-05-31 12:03:00,
2013-05-31 05:08:00,53.7,47.3,29.77,SSW,211,0.0,0.0,79,0.00,,SKC,0.00,VWS V14.01,2013-05-31 12:08:00,
2013-05-31 05:10:00,53.7,47.3,29.77,SSW,211,0.0,0.0,79,0.00,,SKC,0.00,VWS V14.01,2013-05-31 12:10:00,
2013-05-31 05:13:00,53.6,47.9,29.77,SSW,211,0.0,0.0,81,0.00,,SKC,0.00,VWS V14.01,2013-05-31 12:13:00,
2013-05-31 05:18:00,53.5,48.2,29.77,SSW,211,0.0,0.0,82,0.00,,SKC,0.00,VWS V14.01,2013-05-31 12:18:00,
2013-05-31 05:20:00,53.5,48.2,29.77,SSW,211,0.0,0.0,82,0.00,,SKC,0.00,VWS V14.01,2013-05-31 12:20:00,
2013-05-31 05:23:00,53.5,48.5,29.77,SSW,211,0.0,0.0,83,0.00,,SKC,0.00,VWS V14.01,2013-05-31 12:23:00,
2013-05-31 05:28:00,53.5,48.2,29.77,SSW,211,0.0,0.0,82,0.00,,SKC,0.00,VWS V14.01,2013-05-31 12:28:00,
2013-05-31 05:30:00,53.5,48.5,29.77,SSW,211,0.0,0.0,83,0.00,,SKC,0.00,VWS V14.01,2013-05-31 12:30:00,
2013-05-31 05:33:00,53.5,48.5,29.77,SSW,211,0.0,0.0,83,0.00,,SKC,0.00,VWS V14.01,2013-05-31 12:33:00,
2013-05-31 05:38:00,53.6,47.9,29.77,SSW,211,0.0,0.0,81,0.00,,SKC,0.00,VWS V14.01,2013-05-31 12:38:00,
2013-05-31 05:40:00,53.6,47.9,29.77,SSW,211,0.0,0.0,81,0.00,,SKC,0.00,VWS V14.01,2013-05-31 12:40:00,
2013-05-31 05:44:00,53.8,47.8,29.78,SSW,211,0.0,0.0,80,0.00,,SKC,0.00,VWS V14.01,2013-05-31 12:44:00,
2013-05-31 05:49:00,53.9,47.5,29.78,SSW,211,0.0,0.0,79,0.00,,SKC,0.00,VWS V14.01,2013-05-31 12:49:00,
2013-05-31 05:50:00,53.9,47.5,29.78,SSW,211,0.0,0.0,79,0.00,,SKC,0.00,VWS V14.01,2013-05-31 12:50:00,
2013-05-31 05:54:00,53.9,47.5,29.78,SSW,211,0.0,0.0,79,0.00,,SKC,0.00,VWS V14.01,2013-05-31 12:54:00,
2013-05-31 05:59:00,54.0,47.0,29.78,SSW,211,0.0,0.0,77,0.00,,SKC,0.00,VWS V14.01,2013-05-31 12:59:00,
2013-05-31 06:00:00,53.9,46.9,29.78,SSW,211,0.0,0.0,77,0.00,,SKC,0.00,VWS V14.01,2013-05-31 13:00:00,
2013-05-31 06:04:00,54.2,46.8,29.78,SSW,211,0.0,1.0,76,0.00,,SKC,0.00,VWS V14.01,2013-05-31 13:04:00,
2013-05-31 06:09:00,54.5,46.8,29.78,SSW,211,0.0,0.0,75,0.00,,SKC,0.00,VWS V14.01,2013-05-31 13:09:00,
2013-05-31 06:10:00,54.4,47.0,29.78,SSW,211,0.0,1.0,76,0.00,,SKC,0.00,VWS V14.01,2013-05-31 13:10:00,
2013-05-31 06:14:00,54.7,46.9,29.78,SSW,211,0.0,0.0,75,0.00,,SKC,0.00,VWS V14.01,2013-05-31 13:14:00,
2013-05-31 06:19:00,54.9,46.8,29.78,SSW,211,0.0,0.0,74,0.00,,SKC,0.00,VWS V14.01,2013-05-31 13:19:00,
2013-05-31 06:20:00,54.9,47.1,29.78,SSW,211,0.0,0.0,75,0.00,,SKC,0.00,VWS V14.01,2013-05-31 13:20:00,
2013-05-31 06:24:00,55.1,47.0,29.78,SSW,211,0.0,0.0,74,0.00,,SKC,0.00,VWS V14.01,2013-05-31 13:24:00,
2013-05-31 06:29:00,55.5,47.0,29.78,SSW,211,0.0,0.0,73,0.00,,SKC,0.00,VWS V14.01,2013-05-31 13:29:00,
2013-05-31 06:30:00,55.5,47.0,29.78,SSW,211,0.0,1.0,73,0.00,,SKC,0.00,VWS V14.01,2013-05-31 13:30:00,
2013-05-31 06:34:00,55.8,47.3,29.78,SSW,211,0.0,0.0,73,0.00,,SKC,0.00,VWS V14.01,2013-05-31 13:34:00,
2013-05-31 06:39:00,56.0,47.1,29.78,SSW,211,0.0,0.0,72,0.00,,SKC,0.00,VWS V14.01,2013-05-31 13:39:00,
2013-05-31 06:40:00,56.0,47.1,29.78,SSW,211,0.0,0.0,72,0.00,,SKC,0.00,VWS V14.01,2013-05-31 13:40:00,
2013-05-31 06:44:00,56.2,47.3,29.78,SSW,211,0.0,0.0,72,0.00,,SKC,0.00,VWS V14.01,2013-05-31 13:44:00,
2013-05-31 06:49:00,56.4,47.5,29.78,SSW,211,0.0,1.0,72,0.00,,SKC,0.00,VWS V14.01,2013-05-31 13:49:00,
2013-05-31 06:50:00,56.3,47.4,29.78,SSW,211,0.0,0.0,72,0.00,,SKC,0.00,VWS V14.01,2013-05-31 13:50:00,
2013-05-31 06:54:00,56.9,47.6,29.78,SSW,212,0.0,3.0,71,0.00,,SKC,0.00,VWS V14.01,2013-05-31 13:54:00,
2013-05-31 06:59:00,57.4,47.7,29.78,SW,235,0.0,1.0,70,0.00,,SKC,0.00,VWS V14.01,2013-05-31 13:59:00,
2013-05-31 07:00:00,57.3,47.6,29.78,SW,235,1.0,3.0,70,0.00,,SKC,0.00,VWS V14.01,2013-05-31 14:00:00,
2013-05-31 07:04:00,57.9,48.2,29.78,SW,235,0.0,1.0,70,0.00,,SKC,0.00,VWS V14.01,2013-05-31 14:04:00,
2013-05-31 07:09:00,58.2,48.1,29.78,SW,235,0.0,0.0,69,0.00,,SKC,0.00,VWS V14.01,2013-05-31 14:09:00,
2013-05-31 07:10:00,58.2,48.1,29.78,SW,235,0.0,1.0,69,0.00,,SKC,0.00,VWS V14.01,2013-05-31 14:10:00,
2013-05-31 07:14:00,58.6,48.9,29.79,SW,235,1.0,1.0,70,0.00,,SKC,0.00,VWS V14.01,2013-05-31 14:14:00,
2013-05-31 07:20:00,59.2,49.0,29.79,SW,235,0.0,0.0,69,0.00,,SKC,0.00,VWS V14.01,2013-05-31 14:20:00,
2013-05-31 07:25:00,59.9,50.1,29.79,SW,235,2.0,2.0,70,0.00,,SKC,0.00,VWS V14.01,2013-05-31 14:25:00,
2013-05-31 07:30:00,60.7,50.9,29.79,WSW,239,0.0,4.0,70,0.00,,SKC,0.00,VWS V14.01,2013-05-31 14:30:00,
2013-05-31 07:35:00,61.7,51.4,29.79,WSW,241,0.0,4.0,69,0.00,,SKC,0.00,VWS V14.01,2013-05-31 14:35:00,
2013-05-31 07:40:00,62.6,51.9,29.79,WSW,241,1.0,4.0,68,0.00,,SKC,0.00,VWS V14.01,2013-05-31 14:40:00,
2013-05-31 07:45:00,63.8,51.8,29.79,WSW,242,0.0,4.0,65,0.00,,SKC,0.00,VWS V14.01,2013-05-31 14:45:00,
2013-05-31 07:50:00,64.8,51.9,29.79,SW,227,0.0,2.0,63,0.00,,SKC,0.00,VWS V14.01,2013-05-31 14:50:00,
2013-05-31 07:55:00,65.8,51.5,29.79,SW,234,0.0,2.0,60,0.00,,SKC,0.00,VWS V14.01,2013-05-31 14:55:00,
2013-05-31 08:00:00,66.8,52.0,29.79,SW,234,0.0,1.0,59,0.00,,SKC,0.00,VWS V14.01,2013-05-31 15:00:00,
2013-05-31 08:05:00,67.8,52.0,29.79,SW,234,0.0,1.0,57,0.00,,SKC,0.00,VWS V14.01,2013-05-31 15:05:00,
2013-05-31 08:10:00,68.7,51.4,29.79,SW,234,0.0,1.0,54,0.00,,SKC,0.00,VWS V14.01,2013-05-31 15:10:00,
2013-05-31 08:15:00,69.3,52.0,29.79,WSW,240,0.0,4.0,54,0.00,,SKC,0.00,VWS V14.01,2013-05-31 15:15:00,
2013-05-31 08:20:00,70.1,51.7,29.79,WSW,241,0.0,4.0,52,0.00,,SKC,0.00,VWS V14.01,2013-05-31 15:20:00,
2013-05-31 08:25:00,70.8,51.3,29.79,WSW,241,1.0,4.0,50,0.00,,SKC,0.00,VWS V14.01,2013-05-31 15:25:00,
2013-05-31 08:30:00,71.1,51.5,29.80,NW,308,4.0,5.0,50,0.00,,SKC,0.00,VWS V14.01,2013-05-31 15:30:00,
2013-05-31 08:35:00,71.2,51.6,29.80,West,266,0.0,5.0,50,0.00,,SKC,0.00,VWS V14.01,2013-05-31 15:35:00,
2013-05-31 08:40:00,71.2,51.1,29.80,WSW,255,0.0,4.0,49,0.00,,SKC,0.00,VWS V14.01,2013-05-31 15:40:00,
2013-05-31 08:45:00,71.3,50.0,29.80,WNW,291,7.0,7.0,47,0.00,,SKC,0.00,VWS V14.01,2013-05-31 15:45:00,
2013-05-31 08:50:00,71.7,50.4,29.80,NW,320,0.0,6.0,47,0.00,,SKC,0.00,VWS V14.01,2013-05-31 15:50:00,
2013-05-31 08:55:00,72.1,50.2,29.80,WNW,298,2.0,7.0,46,0.00,,SKC,0.00,VWS V14.01,2013-05-31 15:55:00,
2013-05-31 09:00:00,72.2,50.9,29.80,West,280,1.0,4.0,47,0.00,,SKC,0.00,VWS V14.01,2013-05-31 16:00:00,
2013-05-31 09:05:00,72.4,50.5,29.80,WNW,294,2.0,7.0,46,0.00,,SKC,0.00,VWS V14.01,2013-05-31 16:05:00,
2013-05-31 09:10:00,72.4,51.0,29.80,NW,309,4.0,4.0,47,0.00,,SKC,0.00,VWS V14.01,2013-05-31 16:10:00,
2013-05-31 09:15:00,73.1,51.1,29.80,West,278,1.0,5.0,46,0.00,,SKC,0.00,VWS V14.01,2013-05-31 16:15:00,
2013-05-31 09:20:00,73.4,50.2,29.80,WNW,282,4.0,7.0,44,0.00,,SKC,0.00,VWS V14.01,2013-05-31 16:20:00,
2013-05-31 09:25:00,73.8,51.2,29.80,WSW,255,2.0,7.0,45,0.00,,SKC,0.00,VWS V14.01,2013-05-31 16:25:00,
2013-05-31 09:30:00,74.1,50.2,29.80,WNW,283,1.0,5.0,43,0.00,,SKC,0.00,VWS V14.01,2013-05-31 16:30:00,
2013-05-31 09:35:00,74.6,50.0,29.80,NW,308,0.0,7.0,42,0.00,,SKC,0.00,VWS V14.01,2013-05-31 16:35:00,
2013-05-31 09:40:00,75.0,50.4,29.80,West,279,2.0,7.0,42,0.00,,SKC,0.00,VWS V14.01,2013-05-31 16:40:00,
2013-05-31 09:41:00,75.4,50.7,29.80,NW,311,0.0,5.0,42,0.00,,SKC,0.00,VWS V14.01,2013-05-31 16:41:00,
2013-05-31 09:46:00,75.8,49.8,29.79,NNW,332,0.0,7.0,40,0.00,,SKC,0.00,VWS V14.01,2013-05-31 16:46:00,
2013-05-31 09:50:00,76.1,50.0,29.79,NW,308,2.0,7.0,40,0.00,,SKC,0.00,VWS V14.01,2013-05-31 16:50:00,
2013-05-31 09:51:00,76.5,50.4,29.79,NW,309,6.0,7.0,40,0.00,,SKC,0.00,VWS V14.01,2013-05-31 16:51:00,
2013-05-31 09:56:00,76.5,48.3,29.79,WNW,286,6.0,10.0,37,0.00,,SKC,0.00,VWS V14.01,2013-05-31 16:56:00,
2013-05-31 10:00:00,76.5,48.3,29.79,WNW,288,5.0,10.0,37,0.00,,SKC,0.00,VWS V14.01,2013-05-31 17:00:00,
2013-05-31 10:01:00,76.7,47.8,29.79,West,273,5.0,7.0,36,0.00,,SKC,0.00,VWS V14.01,2013-05-31 17:01:00,
2013-05-31 10:06:00,76.9,48.7,29.79,NW,312,6.0,11.0,37,0.00,,SKC,0.00,VWS V14.01,2013-05-31 17:06:00,
2013-05-31 10:10:00,77.0,48.0,29.79,West,279,6.0,11.0,36,0.00,,SKC,0.00,VWS V14.01,2013-05-31 17:10:00,
2013-05-31 10:11:00,77.1,48.1,29.79,WNW,289,6.0,8.0,36,0.00,,SKC,0.00,VWS V14.01,2013-05-31 17:11:00,
2013-05-31 10:16:00,77.4,48.4,29.79,NW,306,2.0,8.0,36,0.00,,SKC,0.00,VWS V14.01,2013-05-31 17:16:00,
2013-05-31 10:20:00,77.8,48.7,29.79,WNW,290,7.0,8.0,36,0.00,,SKC,0.00,VWS V14.01,2013-05-31 17:20:00,
2013-05-31 10:21:00,78.1,48.2,29.79,WNW,282,2.0,7.0,35,0.00,,SKC,0.00,VWS V14.01,2013-05-31 17:21:00,
2013-05-31 10:26:00,78.5,47.8,29.79,NW,306,5.0,8.0,34,0.00,,SKC,0.00,VWS V14.01,2013-05-31 17:26:00,
2013-05-31 10:30:00,78.6,47.9,29.79,WNW,285,2.0,9.0,34,0.00,,SKC,0.00,VWS V14.01,2013-05-31 17:30:00,
2013-05-31 10:31:00,78.8,48.1,29.79,NW,306,0.0,10.0,34,0.00,,SKC,0.00,VWS V14.01,2013-05-31 17:31:00,
2013-05-31 10:36:00,79.2,48.4,29.79,NW,311,0.0,10.0,34,0.00,,SKC,0.00,VWS V14.01,2013-05-31 17:36:00,
2013-05-31 10:40:00,79.5,47.9,29.79,WNW,296,0.0,10.0,33,0.00,,SKC,0.00,VWS V14.01,2013-05-31 17:40:00,
2013-05-31 10:41:00,80.0,48.3,29.79,West,268,0.0,7.0,33,0.00,,SKC,0.00,VWS V14.01,2013-05-31 17:41:00,
2013-05-31 10:46:00,80.6,47.2,29.79,NW,305,4.0,8.0,31,0.00,,SKC,0.00,VWS V14.01,2013-05-31 17:46:00,
2013-05-31 10:50:00,80.5,47.1,29.79,NW,322,0.0,10.0,31,0.00,,SKC,0.00,VWS V14.01,2013-05-31 17:50:00,
2013-05-31 10:51:00,80.6,48.0,29.79,West,273,6.0,7.0,32,0.00,,SKC,0.00,VWS V14.01,2013-05-31 17:51:00,
2013-05-31 10:56:00,80.8,47.4,29.79,NW,304,5.0,11.0,31,0.00,,SKC,0.00,VWS V14.01,2013-05-31 17:56:00,
2013-05-31 11:00:00,81.0,46.7,29.79,NNW,339,0.0,11.0,30,0.00,,SKC,0.00,VWS V14.01,2013-05-31 18:00:00,
2013-05-31 11:01:00,81.2,46.0,29.79,WNW,295,2.0,11.0,29,0.00,,SKC,0.00,VWS V14.01,2013-05-31 18:01:00,
2013-05-31 11:06:00,81.3,45.1,29.79,WNW,299,8.0,11.0,28,0.00,,SKC,0.00,VWS V14.01,2013-05-31 18:06:00,
2013-05-31 11:10:00,81.4,46.1,29.79,WNW,299,1.0,11.0,29,0.00,,SKC,0.00,VWS V14.01,2013-05-31 18:10:00,
2013-05-31 11:11:00,81.6,46.3,29.79,West,276,0.0,11.0,29,0.00,,SKC,0.00,VWS V14.01,2013-05-31 18:11:00,
2013-05-31 11:16:00,82.2,45.9,29.79,West,265,4.0,11.0,28,0.00,,SKC,0.00,VWS V14.01,2013-05-31 18:16:00,
2013-05-31 11:20:00,82.4,46.1,29.79,NW,314,4.0,11.0,28,0.00,,SKC,0.00,VWS V14.01,2013-05-31 18:20:00,
2013-05-31 11:21:00,82.5,46.1,29.79,NW,308,5.0,10.0,28,0.00,,SKC,0.00,VWS V14.01,2013-05-31 18:21:00,
2013-05-31 11:26:00,83.0,47.5,29.79,North,358,0.0,10.0,29,0.00,,SKC,0.00,VWS V14.01,2013-05-31 18:26:00,
2013-05-31 11:30:00,83.3,47.8,29.78,WNW,287,4.0,10.0,29,0.00,,SKC,0.00,VWS V14.01,2013-05-31 18:30:00,
2013-05-31 11:31:00,83.6,47.1,29.78,West,281,4.0,7.0,28,0.00,,SKC,0.00,VWS V14.01,2013-05-31 18:31:00,
2013-05-31 11:36:00,83.8,47.2,29.78,NW,304,8.0,14.0,28,0.00,,SKC,0.00,VWS V14.01,2013-05-31 18:36:00,
2013-05-31 11:40:00,83.8,47.2,29.78,West,280,8.0,14.0,28,0.00,,SKC,0.00,VWS V14.01,2013-05-31 18:40:00,
2013-05-31 11:42:00,83.8,46.3,29.78,NNE,22,1.0,12.0,27,0.00,,SKC,0.00,VWS V14.01,2013-05-31 18:42:00,
2013-05-31 11:47:00,84.2,49.4,29.78,West,279,2.0,12.0,30,0.00,,SKC,0.00,VWS V14.01,2013-05-31 18:47:00,
2013-05-31 11:50:00,84.4,46.8,29.78,WNW,295,5.0,12.0,27,0.00,,SKC,0.00,VWS V14.01,2013-05-31 18:50:00,
2013-05-31 11:52:00,84.6,47.9,29.78,WNW,283,4.0,9.0,28,0.00,,SKC,0.00,VWS V14.01,2013-05-31 18:52:00,
2013-05-31 11:57:00,84.7,49.0,29.78,West,271,0.0,10.0,29,0.00,,SKC,0.00,VWS V14.01,2013-05-31 18:57:00,
2013-05-31 12:00:00,85.0,49.2,29.77,NW,320,2.0,10.0,29,0.00,,SKC,0.00,VWS V14.01,2013-05-31 19:00:00,
2013-05-31 12:02:00,85.6,49.7,29.77,NNW,337,4.0,12.0,29,0.00,,SKC,0.00,VWS V14.01,2013-05-31 19:02:00,
2013-05-31 12:07:00,85.9,49.0,29.77,NW,311,5.0,12.0,28,0.00,,SKC,0.00,VWS V14.01,2013-05-31 19:07:00,
2013-05-31 12:10:00,85.7,48.9,29.77,West,260,0.0,12.0,28,0.00,,SKC,0.00,VWS V14.01,2013-05-31 19:10:00,
2013-05-31 12:12:00,85.8,49.9,29.77,WNW,300,2.0,11.0,29,0.00,,SKC,0.00,VWS V14.01,2013-05-31 19:12:00,
2013-05-31 12:17:00,86.1,49.2,29.77,NW,304,2.0,11.0,28,0.00,,SKC,0.00,VWS V14.01,2013-05-31 19:17:00,
2013-05-31 12:20:00,86.2,49.3,29.77,WSW,253,5.0,11.0,28,0.00,,SKC,0.00,VWS V14.01,2013-05-31 19:20:00,
2013-05-31 12:22:00,86.4,49.5,29.77,WNW,288,4.0,9.0,28,0.00,,SKC,0.00,VWS V14.01,2013-05-31 19:22:00,
2013-05-31 12:27:00,86.6,48.7,29.77,NW,323,9.0,11.0,27,0.00,,SKC,0.00,VWS V14.01,2013-05-31 19:27:00,
2013-05-31 12:30:00,86.5,48.6,29.77,WSW,256,4.0,11.0,27,0.00,,SKC,0.00,VWS V14.01,2013-05-31 19:30:00,
2013-05-31 12:32:00,86.5,48.6,29.77,West,262,7.0,9.0,27,0.00,,SKC,0.00,VWS V14.01,2013-05-31 19:32:00,
2013-05-31 12:37:00,87.1,48.1,29.77,WNW,298,6.0,12.0,26,0.00,,SKC,0.00,VWS V14.01,2013-05-31 19:37:00,
2013-05-31 12:40:00,87.3,47.2,29.77,West,279,0.0,12.0,25,0.00,,SKC,0.00,VWS V14.01,2013-05-31 19:40:00,
2013-05-31 12:42:00,87.4,47.3,29.77,West,270,6.0,12.0,25,0.00,,SKC,0.00,VWS V14.01,2013-05-31 19:42:00,
2013-05-31 12:47:00,87.4,48.3,29.77,West,275,2.0,12.0,26,0.00,,SKC,0.00,VWS V14.01,2013-05-31 19:47:00,
2013-05-31 12:50:00,87.6,47.5,29.77,West,266,4.0,12.0,25,0.00,,SKC,0.00,VWS V14.01,2013-05-31 19:50:00,
2013-05-31 12:52:00,88.2,48.0,29.77,WNW,282,5.0,12.0,25,0.00,,SKC,0.00,VWS V14.01,2013-05-31 19:52:00,
2013-05-31 12:57:00,87.5,48.4,29.77,West,273,4.0,15.0,26,0.00,,SKC,0.00,VWS V14.01,2013-05-31 19:57:00,
2013-05-31 13:00:00,87.3,48.3,29.76,West,275,2.0,15.0,26,0.00,,SKC,0.00,VWS V14.01,2013-05-31 20:00:00,
2013-05-31 13:02:00,87.5,48.4,29.76,NNW,329,5.0,10.0,26,0.00,,SKC,0.00,VWS V14.01,2013-05-31 20:02:00,
2013-05-31 13:07:00,87.9,48.8,29.76,West,271,6.0,11.0,26,0.00,,SKC,0.00,VWS V14.01,2013-05-31 20:07:00,
2013-05-31 13:10:00,87.9,47.7,29.76,NW,310,7.0,11.0,25,0.00,,SKC,0.00,VWS V14.01,2013-05-31 20:10:00,
2013-05-31 13:12:00,88.1,48.9,29.76,WNW,293,5.0,10.0,26,0.00,,SKC,0.00,VWS V14.01,2013-05-31 20:12:00,
2013-05-31 13:17:00,88.5,49.3,29.76,West,275,7.0,10.0,26,0.00,,SKC,0.00,VWS V14.01,2013-05-31 20:17:00,
2013-05-31 13:20:00,88.6,48.3,29.76,NW,316,1.0,12.0,25,0.00,,SKC,0.00,VWS V14.01,2013-05-31 20:20:00,
2013-05-31 13:22:00,89.0,49.7,29.76,WNW,293,1.0,7.0,26,0.00,,SKC,0.00,VWS V14.01,2013-05-31 20:22:00,
2013-05-31 13:27:00,89.6,48.1,29.76,West,266,2.0,11.0,24,0.00,,SKC,0.00,VWS V14.01,2013-05-31 20:27:00,
2013-05-31 13:30:00,89.6,49.2,29.75,West,272,7.0,11.0,25,0.00,,SKC,0.00,VWS V14.01,2013-05-31 20:30:00,
2013-05-31 13:32:00,89.8,50.4,29.75,SW,233,0.0,8.0,26,0.00,,SKC,0.00,VWS V14.01,2013-05-31 20:32:00,
2013-05-31 13:37:00,90.5,49.9,29.75,WNW,296,5.0,9.0,25,0.00,,SKC,0.00,VWS V14.01,2013-05-31 20:37:00,
2013-05-31 13:40:00,90.6,48.9,29.75,WSW,246,4.0,9.0,24,0.00,,SKC,0.00,VWS V14.01,2013-05-31 20:40:00,
2013-05-31 13:42:00,90.8,50.2,29.75,NNW,328,3.0,9.0,25,0.00,,SKC,0.00,VWS V14.01,2013-05-31 20:42:00,
2013-05-31 13:48:00,90.4,48.7,29.75,WNW,293,7.0,12.0,24,0.00,,SKC,0.00,VWS V14.01,2013-05-31 20:48:00,
2013-05-31 13:50:00,90.4,48.7,29.75,WNW,282,8.0,13.0,24,0.00,,SKC,0.00,VWS V14.01,2013-05-31 20:50:00,
2013-05-31 13:53:00,89.9,48.3,29.75,WNW,303,9.0,10.0,24,0.00,,SKC,0.00,VWS V14.01,2013-05-31 20:53:00,
2013-05-31 13:58:00,90.6,48.9,29.74,West,271,0.0,12.0,24,0.00,,SKC,0.00,VWS V14.01,2013-05-31 20:58:00,
2013-05-31 14:00:00,90.8,49.1,29.74,WNW,289,5.0,12.0,24,0.00,,SKC,0.00,VWS V14.01,2013-05-31 21:00:00,
2013-05-31 14:03:00,90.5,47.7,29.74,WNW,284,9.0,15.0,23,0.00,,SKC,0.00,VWS V14.01,2013-05-31 21:03:00,
2013-05-31 14:08:00,90.2,48.6,29.74,WNW,282,6.0,15.0,24,0.00,,SKC,0.00,VWS V14.01,2013-05-31 21:08:00,
2013-05-31 14:10:00,90.2,48.6,29.74,NW,319,5.0,15.0,24,0.00,,SKC,0.00,VWS V14.01,2013-05-31 21:10:00,
2013-05-31 14:13:00,90.8,49.1,29.74,WSW,237,2.0,9.0,24,0.00,,SKC,0.00,VWS V14.01,2013-05-31 21:13:00,
2013-05-31 14:18:00,91.6,48.6,29.74,WNW,291,7.0,9.0,23,0.00,,SKC,0.00,VWS V14.01,2013-05-31 21:18:00,
2013-05-31 14:20:00,91.7,48.7,29.74,NNW,331,9.0,9.0,23,0.00,,SKC,0.00,VWS V14.01,2013-05-31 21:20:00,
2013-05-31 14:23:00,91.9,48.8,29.74,WNW,298,7.0,12.0,23,0.00,,SKC,0.00,VWS V14.01,2013-05-31 21:23:00,
2013-05-31 14:28:00,91.7,47.5,29.74,West,277,4.0,12.0,22,0.00,,SKC,0.00,VWS V14.01,2013-05-31 21:28:00,
2013-05-31 14:30:00,91.7,47.5,29.74,West,272,7.0,12.0,22,0.00,,SKC,0.00,VWS V14.01,2013-05-31 21:30:00,
2013-05-31 14:33:00,91.8,47.6,29.74,West,278,6.0,13.0,22,0.00,,SKC,0.00,VWS V14.01,2013-05-31 21:33:00,
2013-05-31 14:38:00,92.3,49.2,29.74,NW,307,5.0,13.0,23,0.00,,SKC,0.00,VWS V14.01,2013-05-31 21:38:00,
2013-05-31 14:40:00,92.4,49.3,29.74,WNW,283,1.0,13.0,23,0.00,,SKC,0.00,VWS V14.01,2013-05-31 21:40:00,
2013-05-31 14:43:00,93.1,48.7,29.74,West,265,4.0,11.0,22,0.00,,SKC,0.00,VWS V14.01,2013-05-31 21:43:00,
2013-05-31 14:48:00,92.9,49.7,29.74,NW,312,6.0,11.0,23,0.00,,SKC,0.00,VWS V14.01,2013-05-31 21:48:00,
2013-05-31 14:50:00,92.8,49.6,29.74,NW,308,4.0,11.0,23,0.00,,SKC,0.00,VWS V14.01,2013-05-31 21:50:00,
2013-05-31 14:53:00,92.4,49.3,29.74,WSW,252,1.0,12.0,23,0.00,,SKC,0.00,VWS V14.01,2013-05-31 21:53:00,
2013-05-31 14:58:00,92.3,48.0,29.74,NNW,330,4.0,14.0,22,0.00,,SKC,0.00,VWS V14.01,2013-05-31 21:58:00,
2013-05-31 15:00:00,92.2,47.9,29.74,NW,315,6.0,14.0,22,0.00,,SKC,0.00,VWS V14.01,2013-05-31 22:00:00,
2013-05-31 15:03:00,92.2,47.9,29.74,WNW,287,7.0,8.0,22,0.00,,SKC,0.00,VWS V14.01,2013-05-31 22:03:00,
2013-05-31 15:08:00,92.6,49.4,29.74,NW,304,7.0,9.0,23,0.00,,SKC,0.00,VWS V14.01,2013-05-31 22:08:00,
2013-05-31 15:10:00,92.7,48.3,29.74,NW,317,1.0,9.0,22,0.00,,SKC,0.00,VWS V14.01,2013-05-31 22:10:00,
2013-05-31 15:13:00,93.1,48.7,29.73,NW,308,1.0,8.0,22,0.00,,SKC,0.00,VWS V14.01,2013-05-31 22:13:00,
2013-05-31 15:18:00,93.5,47.8,29.73,West,273,2.0,11.0,21,0.00,,SKC,0.00,VWS V14.01,2013-05-31 22:18:00,
2013-05-31 15:20:00,93.5,47.8,29.73,WSW,253,1.0,11.0,21,0.00,,SKC,0.00,VWS V14.01,2013-05-31 22:20:00,
2013-05-31 15:23:00,93.6,47.8,29.73,NW,309,8.0,9.0,21,0.00,,SKC,0.00,VWS V14.01,2013-05-31 22:23:00,
2013-05-31 15:28:00,93.3,47.6,29.73,NW,308,7.0,11.0,21,0.00,,SKC,0.00,VWS V14.01,2013-05-31 22:28:00,
2013-05-31 15:30:00,93.3,47.6,29.73,NW,306,7.0,11.0,21,0.00,,SKC,0.00,VWS V14.01,2013-05-31 22:30:00,
2013-05-31 15:33:00,93.3,48.8,29.73,West,275,5.0,12.0,22,0.00,,SKC,0.00,VWS V14.01,2013-05-31 22:33:00,
2013-05-31 15:38:00,93.8,48.0,29.73,WSW,258,2.0,12.0,21,0.00,,SKC,0.00,VWS V14.01,2013-05-31 22:38:00,
2013-05-31 15:40:00,93.8,48.0,29.73,WSW,258,2.0,12.0,21,0.00,,SKC,0.00,VWS V14.01,2013-05-31 22:40:00,
2013-05-31 15:44:00,94.1,47.0,29.73,West,272,5.0,11.0,20,0.00,,SKC,0.00,VWS V14.01,2013-05-31 22:44:00,
2013-05-31 15:49:00,93.7,46.6,29.73,West,273,2.0,6.0,20,0.00,,SKC,0.00,VWS V14.01,2013-05-31 22:49:00,
2013-05-31 15:50:00,93.7,46.6,29.73,WNW,285,6.0,11.0,20,0.00,,SKC,0.00,VWS V14.01,2013-05-31 22:50:00,
2013-05-31 15:54:00,93.6,46.5,29.73,West,277,4.0,9.0,20,0.00,,SKC,0.00,VWS V14.01,2013-05-31 22:54:00,
2013-05-31 15:59:00,93.4,47.7,29.72,West,259,1.0,6.0,21,0.00,,SKC,0.00,VWS V14.01,2013-05-31 22:59:00,
2013-05-31 16:00:00,93.4,47.7,29.72,WSW,248,6.0,10.0,21,0.00,,SKC,0.00,VWS V14.01,2013-05-31 23:00:00,
2013-05-31 16:04:00,93.5,47.8,29.72,West,266,1.0,12.0,21,0.00,,SKC,0.00,VWS V14.01,2013-05-31 23:04:00,
2013-05-31 16:09:00,93.6,46.5,29.72,NW,306,0.0,5.0,20,0.00,,SKC,0.00,VWS V14.01,2013-05-31 23:09:00,
2013-05-31 16:10:00,93.6,46.5,29.72,NW,306,5.0,12.0,20,0.00,,SKC,0.00,VWS V14.01,2013-05-31 23:10:00,
2013-05-31 16:14:00,93.6,47.8,29.71,WNW,290,6.0,10.0,21,0.00,,SKC,0.00,VWS V14.01,2013-05-31 23:14:00,
2013-05-31 16:19:00,93.4,47.7,29.71,NW,320,7.0,10.0,21,0.00,,SKC,0.00,VWS V14.01,2013-05-31 23:19:00,
2013-05-31 16:20:00,93.4,47.7,29.71,West,277,6.0,10.0,21,0.00,,SKC,0.00,VWS V14.01,2013-05-31 23:20:00,
2013-05-31 16:24:00,93.2,47.5,29.71,West,281,5.0,10.0,21,0.00,,SKC,0.00,VWS V14.01,2013-05-31 23:24:00,
2013-05-31 16:29:00,93.6,46.5,29.71,NW,312,5.0,14.0,20,0.00,,SKC,0.00,VWS V14.01,2013-05-31 23:29:00,
2013-05-31 16:30:00,93.6,46.5,29.71,NW,308,8.0,10.0,20,0.00,,SKC,0.00,VWS V14.01,2013-05-31 23:30:00,
2013-05-31 16:34:00,93.5,47.8,29.71,NW,318,6.0,14.0,21,0.00,,SKC,0.00,VWS V14.01,2013-05-31 23:34:00,
2013-05-31 16:39:00,93.5,47.8,29.71,NNW,333,1.0,8.0,21,0.00,,SKC,0.00,VWS V14.01,2013-05-31 23:39:00,
2013-05-31 16:40:00,93.5,47.8,29.71,NW,306,0.0,14.0,21,0.00,,SKC,0.00,VWS V14.01,2013-05-31 23:40:00,
2013-05-31 16:44:00,93.6,47.8,29.71,NW,313,2.0,9.0,21,0.00,,SKC,0.00,VWS V14.01,2013-05-31 23:44:00,
2013-05-31 16:49:00,93.6,47.8,29.71,NW,312,5.0,10.0,21,0.00,,SKC,0.00,VWS V14.01,2013-05-31 23:49:00,
2013-05-31 16:50:00,93.7,47.9,29.71,NW,321,7.0,11.0,21,0.00,,SKC,0.00,VWS V14.01,2013-05-31 23:50:00,
2013-05-31 16:54:00,93.6,47.8,29.71,NNW,331,0.0,10.0,21,0.00,,SKC,0.00,VWS V14.01,2013-05-31 23:54:00,
2013-05-31 16:59:00,93.7,47.9,29.71,WNW,289,5.0,8.0,21,0.00,,SKC,0.00,VWS V14.01,2013-05-31 23:59:00,
2013-05-31 17:00:00,93.8,48.0,29.71,NW,317,4.0,11.0,21,0.00,,SKC,0.00,VWS V14.01,2013-06-01 00:00:00,
2013-05-31 17:04:00,93.4,47.7,29.71,West,268,5.0,8.0,21,0.00,,SKC,0.00,VWS V14.01,2013-06-01 00:04:00,
2013-05-31 17:10:00,93.5,47.8,29.71,West,269,4.0,4.0,21,0.00,,SKC,0.00,VWS V14.01,2013-06-01 00:10:00,
2013-05-31 17:15:00,93.9,49.3,29.70,WSW,258,2.0,7.0,22,0.00,,SKC,0.00,VWS V14.01,2013-06-01 00:15:00,
2013-05-31 17:20:00,94.3,48.4,29.70,WSW,249,5.0,5.0,21,0.00,,SKC,0.00,VWS V14.01,2013-06-01 00:20:00,
2013-05-31 17:25:00,94.3,49.7,29.70,NW,322,5.0,9.0,22,0.00,,SKC,0.00,VWS V14.01,2013-06-01 00:25:00,
2013-05-31 17:30:00,93.7,49.2,29.70,NW,310,0.0,9.0,22,0.00,,SKC,0.00,VWS V14.01,2013-06-01 00:30:00,
2013-05-31 17:35:00,93.7,47.9,29.70,WNW,291,2.0,9.0,21,0.00,,SKC,0.00,VWS V14.01,2013-06-01 00:35:00,
2013-05-31 17:40:00,93.8,48.0,29.70,South,177,0.0,6.0,21,0.00,,SKC,0.00,VWS V14.01,2013-06-01 00:40:00,
2013-05-31 17:45:00,93.6,49.1,29.70,NW,307,0.0,9.0,22,0.00,,SKC,0.00,VWS V14.01,2013-06-01 00:45:00,
2013-05-31 17:50:00,93.7,49.2,29.70,NW,319,4.0,6.0,22,0.00,,SKC,0.00,VWS V14.01,2013-06-01 00:50:00,
2013-05-31 17:55:00,93.7,49.2,29.70,NNE,19,0.0,7.0,22,0.00,,SKC,0.00,VWS V14.01,2013-06-01 00:55:00,
2013-05-31 18:00:00,93.5,47.8,29.70,NNW,327,4.0,8.0,21,0.00,,SKC,0.00,VWS V14.01,2013-06-01 01:00:00,
2013-05-31 18:05:00,93.3,46.3,29.70,NW,310,1.0,8.0,20,0.00,,SKC,0.00,VWS V14.01,2013-06-01 01:05:00,
2013-05-31 18:10:00,93.1,47.4,29.70,NW,315,0.0,7.0,21,0.00,,SKC,0.00,VWS V14.01,2013-06-01 01:10:00,
2013-05-31 18:15:00,93.2,47.5,29.69,WNW,289,2.0,7.0,21,0.00,,SKC,0.00,VWS V14.01,2013-06-01 01:15:00,
2013-05-31 18:20:00,93.1,47.4,29.69,WSW,251,0.0,1.0,21,0.00,,SKC,0.00,VWS V14.01,2013-06-01 01:20:00,
2013-05-31 18:25:00,92.7,47.1,29.69,NW,323,1.0,6.0,21,0.00,,SKC,0.00,VWS V14.01,2013-06-01 01:25:00,
2013-05-31 18:30:00,92.3,46.8,29.69,WNW,295,5.0,6.0,21,0.00,,SKC,0.00,VWS V14.01,2013-06-01 01:30:00,
2013-05-31 18:35:00,91.9,46.4,29.69,NW,318,4.0,7.0,21,0.00,,SKC,0.00,VWS V14.01,2013-06-01 01:35:00,
2013-05-31 18:40:00,91.5,46.1,29.69,WNW,298,0.0,9.0,21,0.00,,SKC,0.00,VWS V14.01,2013-06-01 01:40:00,
2013-05-31 18:45:00,91.1,44.5,29.70,NW,313,2.0,10.0,20,0.00,,SKC,0.00,VWS V14.01,2013-06-01 01:45:00,
2013-05-31 18:50:00,90.9,45.6,29.70,WSW,256,1.0,6.0,21,0.00,,SKC,0.00,VWS V14.01,2013-06-01 01:50:00,
2013-05-31 18:56:00,90.7,45.4,29.70,NW,317,0.0,6.0,21,0.00,,SKC,0.00,VWS V14.01,2013-06-01 01:56:00,
2013-05-31 19:00:00,90.6,45.4,29.70,NW,320,0.0,7.0,21,0.00,,SKC,0.00,VWS V14.01,2013-06-01 02:00:00,
2013-05-31 19:01:00,90.5,45.3,29.70,WNW,294,6.0,7.0,21,0.00,,SKC,0.00,VWS V14.01,2013-06-01 02:01:00,
2013-05-31 19:06:00,90.2,46.2,29.70,NW,311,0.0,11.0,22,0.00,,SKC,0.00,VWS V14.01,2013-06-01 02:06:00,
2013-05-31 19:10:00,90.0,46.1,29.70,NW,308,0.0,11.0,22,0.00,,SKC,0.00,VWS V14.01,2013-06-01 02:10:00,
2013-05-31 19:11:00,89.9,46.0,29.70,NW,308,0.0,2.0,22,0.00,,SKC,0.00,VWS V14.01,2013-06-01 02:11:00,
2013-05-31 19:16:00,89.7,44.6,29.70,WNW,283,0.0,10.0,21,0.00,,SKC,0.00,VWS V14.01,2013-06-01 02:16:00,
2013-05-31 19:20:00,89.8,43.4,29.70,WSW,243,2.0,10.0,20,0.00,,SKC,0.00,VWS V14.01,2013-06-01 02:20:00,
2013-05-31 19:21:00,89.8,43.4,29.70,WNW,302,2.0,8.0,20,0.00,,SKC,0.00,VWS V14.01,2013-06-01 02:21:00,
2013-05-31 19:26:00,89.7,44.6,29.70,WNW,284,2.0,8.0,21,0.00,,SKC,0.00,VWS V14.01,2013-06-01 02:26:00,
2013-05-31 19:30:00,89.4,44.4,29.70,WNW,301,1.0,8.0,21,0.00,,SKC,0.00,VWS V14.01,2013-06-01 02:30:00,
2013-05-31 19:31:00,89.3,45.5,29.70,WNW,300,0.0,5.0,22,0.00,,SKC,0.00,VWS V14.01,2013-06-01 02:31:00,
2013-05-31 19:36:00,89.0,45.3,29.70,WNW,287,1.0,5.0,22,0.00,,SKC,0.00,VWS V14.01,2013-06-01 02:36:00,
2013-05-31 19:40:00,88.9,46.3,29.70,WNW,287,0.0,5.0,23,0.00,,SKC,0.00,VWS V14.01,2013-06-01 02:40:00,
2013-05-31 19:41:00,88.7,46.2,29.70,NW,314,2.0,4.0,23,0.00,,SKC,0.00,VWS V14.01,2013-06-01 02:41:00,
2013-05-31 19:46:00,88.3,45.8,29.70,WSW,239,1.0,5.0,23,0.00,,SKC,0.00,VWS V14.01,2013-06-01 02:46:00,
2013-05-31 19:50:00,88.2,45.8,29.70,West,262,1.0,5.0,23,0.00,,SKC,0.00,VWS V14.01,2013-06-01 02:50:00,
2013-05-31 19:51:00,88.1,45.7,29.70,WSW,248,0.0,2.0,23,0.00,,SKC,0.00,VWS V14.01,2013-06-01 02:51:00,
2013-05-31 19:56:00,87.8,45.4,29.70,West,271,1.0,5.0,23,0.00,,SKC,0.00,VWS V14.01,2013-06-01 02:56:00,
2013-05-31 20:00:00,87.6,45.3,29.70,West,271,1.0,5.0,23,0.00,,SKC,0.00,VWS V14.01,2013-06-01 03:00:00,
2013-05-31 20:01:00,87.4,45.1,29.70,West,271,0.0,1.0,23,0.00,,SKC,0.00,VWS V14.01,2013-06-01 03:01:00,
2013-05-31 20:06:00,87.0,44.8,29.70,West,273,0.0,4.0,23,0.00,,SKC,0.00,VWS V14.01,2013-06-01 03:06:00,
2013-05-31 20:10:00,86.8,44.6,29.70,WNW,289,0.0,6.0,23,0.00,,SKC,0.00,VWS V14.01,2013-06-01 03:10:00,
2013-05-31 20:11:00,86.6,44.4,29.70,WNW,289,0.0,2.0,23,0.00,,SKC,0.00,VWS V14.01,2013-06-01 03:11:00,
2013-05-31 20:16:00,86.2,44.1,29.70,WNW,289,1.0,2.0,23,0.00,,SKC,0.00,VWS V14.01,2013-06-01 03:16:00,
2013-05-31 20:20:00,86.1,45.1,29.70,West,268,0.0,4.0,24,0.00,,SKC,0.00,VWS V14.01,2013-06-01 03:20:00,
2013-05-31 20:21:00,85.9,45.0,29.70,West,266,1.0,2.0,24,0.00,,SKC,0.00,VWS V14.01,2013-06-01 03:21:00,
2013-05-31 20:26:00,85.7,44.8,29.70,West,266,0.0,2.0,24,0.00,,SKC,0.00,VWS V14.01,2013-06-01 03:26:00,
2013-05-31 20:30:00,85.5,45.7,29.70,West,266,0.0,2.0,25,0.00,,SKC,0.00,VWS V14.01,2013-06-01 03:30:00,
2013-05-31 20:31:00,85.3,45.5,29.70,West,266,0.0,0.0,25,0.00,,SKC,0.00,VWS V14.01,2013-06-01 03:31:00,
2013-05-31 20:36:00,84.9,45.2,29.70,West,266,0.0,0.0,25,0.00,,SKC,0.00,VWS V14.01,2013-06-01 03:36:00,
2013-05-31 20:40:00,84.7,45.0,29.70,West,266,0.0,0.0,25,0.00,,SKC,0.00,VWS V14.01,2013-06-01 03:40:00,
2013-05-31 20:41:00,84.5,45.9,29.70,West,266,0.0,0.0,26,0.00,,SKC,0.00,VWS V14.01,2013-06-01 03:41:00,
2013-05-31 20:46:00,83.9,46.4,29.70,West,266,0.0,0.0,27,0.00,,SKC,0.00,VWS V14.01,2013-06-01 03:46:00,
2013-05-31 20:50:00,83.7,46.2,29.70,West,266,0.0,0.0,27,0.00,,SKC,0.00,VWS V14.01,2013-06-01 03:50:00,
2013-05-31 20:51:00,83.4,46.9,29.70,West,266,0.0,0.0,28,0.00,,SKC,0.00,VWS V14.01,2013-06-01 03:51:00,
2013-05-31 20:56:00,82.7,47.2,29.70,West,266,0.0,0.0,29,0.00,,SKC,0.00,VWS V14.01,2013-06-01 03:56:00,
2013-05-31 21:00:00,82.4,47.0,29.70,West,266,0.0,0.0,29,0.00,,SKC,0.00,VWS V14.01,2013-06-01 04:00:00,
2013-05-31 21:01:00,82.2,47.7,29.70,West,266,0.0,0.0,30,0.00,,SKC,0.00,VWS V14.01,2013-06-01 04:01:00,
2013-05-31 21:02:00,82.1,47.6,29.70,West,266,0.0,0.0,30,0.00,,SKC,0.00,VWS V14.01,2013-06-01 04:02:00,
2013-05-31 21:04:00,81.8,48.2,29.70,West,266,0.0,0.0,31,0.00,,SKC,0.00,VWS V14.01,2013-06-01 04:04:00,
2013-05-31 21:09:00,81.1,48.5,29.70,West,266,0.0,0.0,32,0.00,,SKC,0.00,VWS V14.01,2013-06-01 04:09:00,
2013-05-31 21:10:00,81.2,48.6,29.70,West,266,0.0,0.0,32,0.00,,SKC,0.00,VWS V14.01,2013-06-01 04:10:00,
2013-05-31 21:14:00,80.5,48.0,29.70,West,266,0.0,0.0,32,0.00,,SKC,0.00,VWS V14.01,2013-06-01 04:14:00,
2013-05-31 21:19:00,79.9,46.6,29.70,West,266,0.0,0.0,31,0.00,,SKC,0.00,VWS V14.01,2013-06-01 04:19:00,
2013-05-31 21:20:00,79.9,46.6,29.70,West,266,0.0,0.0,31,0.00,,SKC,0.00,VWS V14.01,2013-06-01 04:20:00,
2013-05-31 21:24:00,79.4,47.0,29.70,West,266,0.0,0.0,32,0.00,,SKC,0.00,VWS V14.01,2013-06-01 04:24:00,
2013-05-31 21:29:00,79.0,47.5,29.70,West,266,0.0,0.0,33,0.00,,SKC,0.00,VWS V14.01,2013-06-01 04:29:00,
2013-05-31 21:30:00,79.1,47.6,29.70,West,266,0.0,0.0,33,0.00,,SKC,0.00,VWS V14.01,2013-06-01 04:30:00,
2013-05-31 21:34:00,78.7,48.0,29.70,West,266,0.0,0.0,34,0.00,,SKC,0.00,VWS V14.01,2013-06-01 04:34:00,
2013-05-31 21:39:00,78.4,49.3,29.70,West,266,0.0,0.0,36,0.00,,SKC,0.00,VWS V14.01,2013-06-01 04:39:00,
2013-05-31 21:40:00,78.4,48.5,29.70,West,266,0.0,0.0,35,0.00,,SKC,0.00,VWS V14.01,2013-06-01 04:40:00,
2013-05-31 21:44:00,78.0,49.7,29.70,West,266,0.0,0.0,37,0.00,,SKC,0.00,VWS V14.01,2013-06-01 04:44:00,
2013-05-31 21:49:00,77.6,49.3,29.70,West,266,0.0,0.0,37,0.00,,SKC,0.00,VWS V14.01,2013-06-01 04:49:00,
2013-05-31 21:50:00,77.6,49.3,29.70,West,266,0.0,0.0,37,0.00,,SKC,0.00,VWS V14.01,2013-06-01 04:50:00,
2013-05-31 21:54:00,77.2,48.2,29.70,West,266,0.0,0.0,36,0.00,,SKC,0.00,VWS V14.01,2013-06-01 04:54:00,
2013-05-31 21:59:00,76.8,47.8,29.71,West,266,0.0,0.0,36,0.00,,SKC,0.00,VWS V14.01,2013-06-01 04:59:00,
2013-05-31 22:00:00,76.8,47.8,29.71,West,266,0.0,0.0,36,0.00,,SKC,0.00,VWS V14.01,2013-06-01 05:00:00,
2013-05-31 22:04:00,76.3,48.1,29.71,West,266,0.0,0.0,37,0.00,,SKC,0.00,VWS V14.01,2013-06-01 05:04:00,
2013-05-31 22:09:00,75.8,49.1,29.71,West,266,0.0,0.0,39,0.00,,SKC,0.00,VWS V14.01,2013-06-01 05:09:00,
2013-05-31 22:10:00,75.9,49.2,29.71,West,266,0.0,0.0,39,0.00,,SKC,0.00,VWS V14.01,2013-06-01 05:10:00,
2013-05-31 22:14:00,75.3,50.7,29.71,West,266,0.0,0.0,42,0.00,,SKC,0.00,VWS V14.01,2013-06-01 05:14:00,
2013-05-31 22:19:00,74.9,50.9,29.71,West,266,0.0,0.0,43,0.00,,SKC,0.00,VWS V14.01,2013-06-01 05:19:00,
2013-05-31 22:20:00,74.9,50.9,29.71,West,266,0.0,0.0,43,0.00,,SKC,0.00,VWS V14.01,2013-06-01 05:20:00,
2013-05-31 22:24:00,74.4,50.5,29.71,West,266,0.0,0.0,43,0.00,,SKC,0.00,VWS V14.01,2013-06-01 05:24:00,
2013-05-31 22:29:00,74.0,50.7,29.71,West,266,0.0,0.0,44,0.00,,SKC,0.00,VWS V14.01,2013-06-01 05:29:00,
2013-05-31 22:30:00,74.1,50.8,29.71,West,266,0.0,0.0,44,0.00,,SKC,0.00,VWS V14.01,2013-06-01 05:30:00,
2013-05-31 22:34:00,73.7,50.5,29.71,West,266,0.0,0.0,44,0.00,,SKC,0.00,VWS V14.01,2013-06-01 05:34:00,
2013-05-31 22:39:00,73.5,50.3,29.71,West,266,0.0,0.0,44,0.00,,SKC,0.00,VWS V14.01,2013-06-01 05:39:00,
2013-05-31 22:40:00,73.5,50.3,29.71,West,266,0.0,0.0,44,0.00,,SKC,0.00,VWS V14.01,2013-06-01 05:40:00,
2013-05-31 22:44:00,73.2,50.0,29.71,West,266,0.0,0.0,44,0.00,,SKC,0.00,VWS V14.01,2013-06-01 05:44:00,
2013-05-31 22:49:00,73.0,49.8,29.71,West,266,0.0,0.0,44,0.00,,SKC,0.00,VWS V14.01,2013-06-01 05:49:00,
2013-05-31 22:50:00,73.0,49.8,29.71,West,266,0.0,0.0,44,0.00,,SKC,0.00,VWS V14.01,2013-06-01 05:50:00,
2013-05-31 22:54:00,72.6,50.1,29.71,West,266,0.0,0.0,45,0.00,,SKC,0.00,VWS V14.01,2013-06-01 05:54:00,
2013-05-31 22:59:00,72.3,51.5,29.71,West,266,0.0,0.0,48,0.00,,SKC,0.00,VWS V14.01,2013-06-01 05:59:00,
2013-05-31 23:00:00,72.3,51.0,29.71,West,266,0.0,0.0,47,0.00,,SKC,0.00,VWS V14.01,2013-06-01 06:00:00,
2013-05-31 23:05:00,71.9,50.0,29.71,West,266,0.0,0.0,46,0.00,,SKC,0.00,VWS V14.01,2013-06-01 06:05:00,
2013-05-31 23:10:00,71.5,47.8,29.71,West,266,0.0,0.0,43,0.00,,SKC,0.00,VWS V14.01,2013-06-01 06:10:00,
2013-05-31 23:15:00,71.2,47.6,29.71,West,266,0.0,0.0,43,0.00,,SKC,0.00,VWS V14.01,2013-06-01 06:15:00,
2013-05-31 23:20:00,70.9,46.7,29.71,West,266,0.0,0.0,42,0.00,,SKC,0.00,VWS V14.01,2013-06-01 06:20:00,
2013-05-31 23:25:00,70.5,46.3,29.71,West,266,0.0,0.0,42,0.00,,SKC,0.00,VWS V14.01,2013-06-01 06:25:00,
2013-05-31 23:30:00,70.3,48.0,29.71,West,266,0.0,0.0,45,0.00,,SKC,0.00,VWS V14.01,2013-06-01 06:30:00,
2013-05-31 23:35:00,70.0,47.1,29.71,West,266,0.0,0.0,44,0.00,,SKC,0.00,VWS V14.01,2013-06-01 06:35:00,
2013-05-31 23:40:00,69.6,47.3,29.71,West,266,0.0,0.0,45,0.00,,SKC,0.00,VWS V14.01,2013-06-01 06:40:00,
2013-05-31 23:45:00,69.3,46.5,29.71,West,266,0.0,0.0,44,0.00,,SKC,0.00,VWS V14.01,2013-06-01 06:45:00,
2013-05-31 23:50:00,69.0,46.2,29.71,West,266,0.0,0.0,44,0.00,,SKC,0.00,VWS V14.01,2013-06-01 06:50:00,
2013-05-31 23:55:00,68.7,46.5,29.71,West,266,0.0,0.0,45,0.00,,SKC,0.00,VWS V14.01,2013-06-01 06:55:00,